Temperature
-1 -1 -1 -1 -1 -1 -1 -1 -1 -1 -1 -1 -1 -1 -1 -1 -1 -2 -2 -2 -2 -2 -2 -2 -2 -2 -2 -2 -2 -2 -2 -3 -3 -2 -2 -2 -2 -1 -1 -1 -1 -1 -1
-1 -1 -1 -1 -2 -2 -2 -2 -2 -2 -2 -2 -2 -2 -2 -2 -2 -2 -2 -2 -3 -3 -3 -3 -3 -3 -3 -3 -3 -3 -3 -3 -3 -3 -3 -3 -2 -2 -2 -2 -2 -1 -1
-2 -2 -2 -2 -2 -2 -2 -2 -2 -2 -2 -3 -3 -3 -3 -3 -3 -3 -3 -3 -3 -3 -3 -4 -4 -4 -4 -4 -4 -4 -4 -4 -4 -4 -4 -3 -3 -3 -3 -3 -2 -2 -2
-2 -2 -2 -2 -2 -3 -3 -3 -3 -3 -3 -3 -3 -3 -3 -3 -3 -3 -4 -4 -4 -4 -4 -4 -4 -4 -4 -4 -4 -4 -4 -4 -4 -5 -4 -4 -4 -4 -4 -4 -3 -3 -3
-3 -3 -3 -3 -3 -3 -3 -3 -3 -4 -4 -4 -4 -4 -4 -4 -4 -4 -4 -4 -4 -4 -4 -4 -5 -5 -5 -5 -5 -5 -5 -5 -5 -5 -5 -5 -5 -5 -4 -4 -4 -4 -4
-3 -3 -3 -3 -4 -4 -4 -4 -4 -4 -4 -4 -4 -4 -4 -4 -4 -5 -5 -5 -5 -5 -5 -5 -5 -5 -5 -5 -5 -5 -5 -5 -6 -6 -6 -6 -5 -5 -5 -5 -5 -5 -5
-4 -4 -4 -4 -4 -4 -4 -4 -4 -4 -5 -5 -5 -5 -5 -5 -5 -5 -5 -5 -6 -6 -6 -6 -6 -5 -5 -6 -6 -6 -6 -6 -6 -6 -6 -6 -6 -6 -6 -6 -6 -6 -6
-4 -5 -5 -5 -4 -4 -5 -5 -5 -5 -5 -5 -5 -5 -5 -5 -5 -6 -6 -6 -6 -6 -6 -6 -6 -6 -6 -6 -6 -6 -6 -6 -6 -6 -6 -6 -6 -6 -6 -6 -6 -6 -6
-5 -5 -5 -5 -5 -5 -5 -5 -5 -6 -5 -6 -6 -6 -6 -6 -6 -6 -6 -6 -7 -7 -6 -7 -7 -6 -7 -7 -7 -7 -7 -6 -6 -6 -7 -7 -6 -6 -7 -7 -7 -7 -7
-6 -6 -6 -6 -6 -6 -6 -6 -6 -6 -6 -6 -6 -6 -6 -6 -7 -7 -7 -7 -7 -7 -7 -7 -7 -7 -7 -7 -7 -7 -7 -7 -7 -7 -7 -7 -7 -7 -7 -7 -7 -7 -7
-6 -6 -6 -6 -6 -6 -6 -6 -6 -7 -7 -7 -7 -7 -7 -7 -7 -7 -8 -8 -8 -8 -8 -7 -7 -7 -7 -7 -7 -8 -8 -8 -8 -8 -8 -8 -7 -7 -7 -7 -8 -8 -8
-7 -7 -7 -7 -7 -7 -7 -7 -7 -7 -7 -7 -7 -7 -8 -8 -8 -8 -8 -8 -8 -8 -8 -8 -8 -8 -8 -8 -8 -8 -8 -8 -8 -8 -8 -8 -8 -8 -8 -8 -8 -8 -8
-7 -7 -7 -7 -8 -8 -8 -8 -8 -8 -8 -8 -8 -8 -8 -8 -8 -9 -9 -9 -9 -9 -9 -8 -8 -8 -8 -8 -8 -9 -9 -9 -9 -9 -9 -9 -9 -9 -9 -8 -8 -8 -8
-8 -8 -8 -8 -8 -9 -9 -9 -9 -9 -9 -9 -9 -9 -9 -9 -9 -9 -9 -9 -9 -9 -9 -9 -9 -9 -9 -9 -9 -9 -9 -9 -9 -10 -10 -9 -9 -9 -9 -9 -9 -9 -9
-9 -9 -9 -9 -9 -9 -9 -9 -9 -9 -9 -9 -9 -9 -9 -9 -9 -9 -10 -10 -10 -10 -10 -10 -10 -10 -10 -10 -10 -10 -10 -10 -10 -10 -10 -10 -10 -10 -10 -10 -10 -10 -10
-9 -9 -10 -10 -10 -10 -10 -10 -10 -10 -10 -10 -10 -10 -10 -10 -10 -10 -10 -10 -10 -10 -10 -10 -10 -10 -10 -10 -10 -10 -10 -10 -10 -11 -11 -11 -10 -10 -10 -10 -10 -10 -10
-10 -10 -10 -10 -10 -11 -11 -11 -11 -11 -11 -11 -11 -11 -11 -11 -10 -10 -10 -11 -11 -11 -11 -11 -11 -11 -11 -11 -11 -11 -11 -11 -11 -11 -11 -11 -11 -11 -11 -11 -10 -10 -10
-10 -10 -11 -11 -11 -11 -11 -11 -11 -11 -11 -11 -11 -11 -11 -11 -11 -11 -11 -11 -11 -11 -11 -11 -11 -11 -11 -11 -11 -11 -11 -11 -11 -11 -11 -11 -11 -11 -11 -11 -11 -11 -11
-11 -11 -11 -11 -12 -12 -12 -12 -12 -12 -12 -12 -12 -12 -12 -12 -12 -12 -12 -12 -12 -12 -12 -12 -12 -12 -12 -12 -12 -12 -12 -12 -12 -12 -12 -12 -12 -12 -12 -11 -11 -11 -11
-12 -12 -12 -12 -12 -12 -12 -12 -12 -12 -13 -13 -13 -13 -13 -13 -12 -12 -12 -12 -13 -12 -12 -12 -12 -12 -12 -12 -12 -12 -12 -12 -12 -12 -12 -12 -12 -12 -12 -12 -12 -12 -12
-12 -12 -12 -12 -13 -13 -13 -13 -13 -13 -13 -13 -13 -13 -13 -13 -13 -13 -13 -13 -13 -13 -13 -13 -13 -13 -13 -13 -13 -13 -12 -12 -12 -12 -13 -13 -12 -12 -12 -12 -12 -12 -12
-13 -13 -13 -13 -13 -13 -13 -13 -13 -13 -14 -14 -14 -14 -14 -14 -14 -14 -14 -14 -14 -14 -13 -13 -13 -13 -13 -13 -13 -13 -13 -13 -13 -13 -13 -13 -13 -13 -13 -13 -12 -12 -12
-13 -13 -13 -13 -13 -13 -13 -14 -14 -14 -14 -14 -14 -14 -14 -14 -14 -14 -14 -14 -14 -14 -14 -14 -14 -13 -13 -13 -13 -13 -13 -13 -13 -13 -13 -13 -13 -13 -13 -13 -13 -13 -12
-13 -13 -14 -14 -14 -14 -14 -14 -14 -14 -14 -14 -14 -14 -14 -14 -14 -14 -14 -14 -14 -14 -14 -14 -14 -14 -14 -14 -13 -13 -13 -13 -13 -13 -13 -13 -13 -13 -13 -13 -13 -13 -13
-14 -14 -14 -14 -14 -14 -14 -14 -14 -15 -15 -15 -15 -15 -15 -15 -15 -15 -15 -14 -14 -14 -14 -14 -14 -14 -14 -14 -14 -14 -13 -13 -13 -13 -14 -14 -14 -13 -13 -13 -13 -13 -13
-14 -14 -14 -14 -14 -14 -15 -15 -15 -15 -15 -15 -15 -15 -15 -15 -15 -15 -15 -15 -15 -15 -14 -14 -14 -14 -14 -14 -14 -14 -14 -13 -13 -14 -14 -14 -14 -14 -14 -13 -13 -13 -13
Wind_Speed
7 7 6 5 5 5 4 4 4 4 4 4 3 3 3 3 3 3 3 3 3 3 3 3 4 4 4 3 4 4 5 6 7 7 6 7 9 9 10 10 11 11 11
6 6 6 5 5 5 4 4 4 4 4 3 3 3 3 3 3 4 4 4 4 4 4 4 5 4 5 5 4 5 6 6 7 9 8 7 9 9 10 10 10 10 11
6 6 6 5 5 5 5 4 4 4 3 3 3 3 4 4 4 4 4 5 5 5 5 5 5 6 6 5 6 6 6 6 7 8 8 8 8 8 9 9 10 9 10
5 5 5 5 5 4 4 4 4 4 4 4 4 4 4 4 4 4 5 5 5 5 5 6 6 7 7 7 6 7 7 7 7 8 8 8 8 8 8 8 8 8 8
5 5 5 4 4 4 4 4 3 3 3 3 4 4 4 4 4 4 5 5 6 6 6 6 7 7 8 8 7 7 7 7 7 7 8 8 8 7 7 7 9 9 9
5 4 4 4 3 3 3 3 3 3 3 3 4 4 4 3 5 6 5 5 6 6 6 6 7 8 9 11 12 11 10 9 8 8 8 9 10 9 8 8 8 9 9
4 3 4 4 3 3 3 3 3 3 3 4 4 4 4 5 6 7 7 5 6 6 6 6 6 6 8 8 10 11 11 12 12 11 11 11 11 10 10 10 9 10 10
3 3 3 3 3 3 3 3 3 3 3 4 4 4 4 5 6 6 6 6 6 6 6 7 7 7 7 8 9 9 9 10 11 10 10 10 10 10 10 10 11 11 11
3 2 3 3 3 3 3 3 3 3 3 3 4 4 4 4 5 5 5 4 5 6 6 6 7 7 9 10 9 9 10 9 10 12 13 14 14 14 13 9 9 8 9
2 2 2 3 3 3 3 3 3 3 3 3 3 3 4 4 4 5 5 4 5 5 5 6 7 8 10 10 8 8 9 8 8 8 10 11 11 11 12 10 9 9 9
1 1 2 2 3 3 2 2 2 2 2 2 2 2 3 3 4 5 5 3 4 5 5 5 5 9 10 10 9 7 9 8 7 7 7 7 7 7 7 8 8 8 8
1 1 1 2 1 2 2 2 2 2 2 2 2 2 2 2 3 4 6 5 5 5 5 5 5 8 9 9 7 7 9 8 5 6 6 6 7 7 7 8 9 10 10
0 1 1 1 1 2 2 2 1 2 2 2 2 2 2 2 3 5 6 6 7 5 5 7 7 8 7 6 6 7 6 5 5 5 6 6 7 7 7 7 8 9 10
1 1 1 1 1 1 1 1 2 2 2 2 2 2 2 3 3 3 4 4 5 5 5 6 7 7 5 5 5 5 4 4 5 5 6 6 6 6 6 6 7 6 7
1 1 1 1 1 1 1 1 2 2 2 2 2 3 3 3 4 5 4 4 4 5 4 3 3 4 3 3 4 4 4 4 5 5 5 6 6 6 6 6 6 6 7
1 1 1 1 1 1 1 1 2 2 3 4 4 4 4 5 6 6 6 6 6 5 4 3 4 4 4 4 4 4 4 4 5 5 5 6 6 6 6 6 6 6 7
1 1 1 1 1 1 1 1 1 2 2 2 3 4 5 5 6 5 5 5 5 4 3 4 4 4 4 4 4 5 5 5 5 5 5 6 6 6 6 6 6 6 7
0 1 1 1 1 1 1 1 1 2 2 2 3 4 5 5 5 5 5 4 3 3 3 4 4 4 4 4 5 5 5 5 5 5 5 6 6 6 6 6 6 7 7
1 1 1 1 1 1 1 1 1 2 2 2 3 3 5 5 5 5 4 3 3 3 4 4 4 4 4 5 5 5 5 5 6 5 6 6 6 6 6 6 7 9 8
1 1 1 1 1 1 1 1 2 2 2 3 3 3 4 4 3 3 3 3 3 4 4 4 5 5 5 5 5 5 5 6 6 6 6 6 6 6 7 7 7 7 6
1 1 1 1 1 1 2 2 2 2 3 3 3 4 5 4 4 4 4 4 4 4 5 5 5 5 5 5 5 6 7 6 6 6 6 6 6 6 6 6 7 7 6
1 1 1 1 1 2 2 2 3 3 4 4 4 4 6 4 4 4 4 4 4 5 5 5 5 5 5 6 6 6 6 6 6 6 6 6 6 6 6 6 6 6 6
2 2 2 2 2 3 3 3 3 4 4 4 4 4 4 4 4 4 5 5 5 5 5 5 6 6 6 7 7 7 7 7 7 7 6 7 6 6 6 6 7 7 7
2 2 2 3 3 3 3 3 4 4 4 5 5 5 5 5 5 5 5 5 5 6 6 6 7 8 9 9 9 9 9 10 9 8 9 8 7 7 7 7 7 7 7
2 3 3 3 3 3 3 4 4 4 5 5 5 5 5 5 6 6 6 6 7 7 8 8 8 8 10 11 11 11 12 13 13 11 9 8 8 8 8 7 7 7 7
3 3 3 3 3 4 4 4 5 5 5 5 5 5 6 6 6 6 6 6 6 7 8 8 9 10 11 11 12 13 14 15 15 14 11 8 7 7 7 7 8 7 7
Wind_Direction
184 183 182 183 181 180 182 185 186 185 189 196 201 207 215 221 226 226 225 229 237 247 252 255 258 259 259 258 253 255 259 263 269 280 286 295 297 301 303 300 296 295 293
179 178 179 179 180 182 185 187 187 191 195 200 203 211 219 226 230 233 234 233 236 243 250 254 258 260 258 259 256 255 258 262 269 277 285 291 293 297 300 299 299 297 294
174 174 177 182 185 188 190 190 192 198 204 205 208 215 223 230 233 236 240 240 240 244 250 254 259 259 260 260 259 259 260 262 264 271 280 285 288 291 297 297 297 297 296
173 176 181 187 188 190 192 193 197 203 208 213 220 226 230 235 234 239 244 244 247 250 251 255 258 259 263 265 263 263 263 264 266 267 273 280 284 289 291 293 297 298 298
174 178 182 183 184 188 191 195 201 207 216 220 225 232 236 236 237 245 247 247 252 254 255 257 256 260 264 265 267 265 263 263 266 269 272 279 284 288 287 292 293 299 297
176 179 176 175 180 189 192 197 203 211 220 225 228 231 238 242 250 253 257 254 255 254 258 263 262 258 260 264 269 268 266 265 267 269 272 275 280 283 285 287 291 294 296
174 177 178 177 181 192 195 198 207 214 221 229 233 234 241 251 252 254 257 262 258 258 259 263 264 263 263 266 269 268 265 265 265 268 271 272 279 283 284 283 283 285 288
172 180 183 185 190 195 200 208 215 222 228 236 239 239 244 252 257 257 259 261 259 261 263 265 267 268 265 270 271 268 265 263 263 264 268 272 275 281 278 279 282 283 285
175 187 193 194 196 199 207 218 225 226 233 240 240 238 242 252 257 262 265 263 261 263 264 265 268 272 275 277 273 270 270 270 270 270 272 275 279 281 282 280 279 280 283
191 205 207 206 205 208 213 223 231 233 238 243 247 239 239 251 259 265 269 263 264 267 268 267 266 275 280 280 272 271 274 278 280 279 277 278 278 279 277 270 271 274 281
200 204 209 212 214 211 212 219 226 234 242 246 247 248 242 250 256 263 273 273 268 271 273 272 273 280 279 280 277 273 282 288 283 280 279 280 281 279 276 273 271 268 273
191 208 215 215 215 207 209 217 220 221 231 247 244 259 259 259 267 270 275 282 286 274 275 280 282 287 286 281 281 290 294 291 281 280 280 282 284 284 283 281 279 275 272
181 234 233 209 210 207 205 207 214 221 232 251 258 258 275 282 278 276 274 280 285 282 282 289 293 294 291 280 288 295 293 287 283 281 282 284 286 287 289 289 287 283 280
200 238 233 204 208 207 216 215 223 228 238 252 264 275 280 280 282 282 279 280 279 282 287 288 294 295 287 288 289 288 286 284 284 282 286 288 290 291 289 290 289 291 288
209 225 230 216 205 217 239 246 246 248 256 262 265 271 277 276 279 290 290 284 285 285 290 290 292 292 288 288 288 289 291 291 288 289 289 291 293 294 292 291 289 290 286
214 227 234 231 222 232 250 302 309 294 298 294 293 297 292 296 301 289 287 292 296 296 289 281 284 286 287 288 288 289 290 292 294 291 290 291 292 293 295 294 291 288 288
209 248 263 255 243 249 256 276 310 329 319 311 315 321 321 317 314 306 297 298 297 291 280 282 284 284 287 288 287 286 288 291 291 287 287 289 290 291 292 293 292 293 291
307 284 273 253 248 250 259 270 278 294 310 320 325 326 327 323 321 322 323 316 299 290 284 282 284 289 287 287 288 289 289 288 286 284 285 286 286 287 288 290 290 290 291
318 311 301 276 262 261 271 283 291 297 303 311 317 320 330 327 325 326 325 309 297 295 294 293 291 289 289 286 285 284 284 284 285 284 283 283 282 283 284 286 287 288 288
334 334 329 302 266 266 272 282 290 293 297 301 305 312 322 321 313 311 308 302 296 295 297 295 295 293 289 286 283 282 282 281 283 281 282 282 282 280 280 282 284 287 286
324 319 313 295 274 268 273 279 283 283 284 289 293 297 306 301 297 296 298 299 297 296 295 294 293 294 292 288 282 280 280 280 280 281 282 281 282 281 280 279 281 282 284
294 287 278 275 276 273 279 277 276 278 281 285 291 294 301 301 295 293 293 294 295 294 293 291 289 290 290 289 285 280 278 278 278 278 279 279 278 278 279 280 282 285 284
279 277 277 277 278 278 282 278 278 279 281 284 287 290 290 290 289 290 290 293 295 294 291 287 287 288 287 285 281 278 276 277 278 278 279 280 281 280 278 278 280 283 282
266 266 270 274 275 275 278 279 280 280 280 281 281 282 283 284 284 286 288 290 291 289 286 283 282 285 288 287 283 280 276 276 278 274 271 271 274 275 275 276 277 278 279
263 266 269 270 271 274 276 277 277 277 279 279 280 281 282 283 283 284 285 286 286 285 286 284 282 282 286 287 285 284 285 286 283 276 270 266 267 267 270 273 274 277 278
267 267 268 268 267 269 270 272 273 275 275 276 276 277 278 279 279 280 281 281 283 284 285 284 283 285 288 288 288 289 291 292 289 283 275 270 268 267 268 269 273 274 278
Height
1476 1479 1481 1483 1485 1487 1488 1490 1491 1492 1493 1494 1494 1495 1495 1496 1496 1496 1496 1496 1496 1496 1496 1495 1495 1494 1494 1494 1493 1493 1493 1493 1491 1489 1489 1487 1486 1485 1484 1483 1481 1480 1479
1473 1475 1477 1479 1481 1483 1484 1486 1487 1488 1489 1490 1491 1491 1492 1492 1492 1492 1492 1492 1492 1492 1492 1491 1491 1490 1490 1490 1489 1489 1489 1488 1487 1485 1483 1483 1482 1481 1479 1477 1476 1475 1474
1470 1472 1474 1476 1477 1479 1480 1482 1483 1484 1486 1486 1487 1487 1488 1488 1488 1488 1488 1488 1488 1488 1488 1487 1487 1487 1486 1486 1485 1485 1484 1483 1483 1481 1479 1478 1477 1476 1474 1473 1471 1469 1468
1467 1468 1470 1472 1474 1475 1477 1478 1479 1480 1482 1482 1483 1483 1484 1484 1484 1484 1484 1484 1484 1484 1483 1483 1483 1482 1482 1481 1481 1480 1479 1479 1478 1477 1475 1473 1472 1471 1470 1468 1466 1464 1462
1464 1465 1467 1469 1470 1472 1473 1474 1475 1477 1478 1478 1479 1479 1479 1480 1480 1480 1480 1480 1480 1479 1479 1479 1478 1478 1477 1477 1476 1476 1475 1474 1473 1472 1471 1469 1468 1467 1465 1464 1461 1459 1457
1461 1463 1464 1465 1467 1468 1469 1471 1472 1472 1473 1474 1474 1474 1475 1475 1475 1475 1476 1476 1475 1475 1474 1474 1473 1473 1472 1472 1471 1471 1470 1469 1468 1468 1466 1464 1463 1462 1461 1459 1457 1454 1451
1459 1460 1461 1462 1463 1465 1466 1467 1467 1468 1469 1469 1469 1470 1470 1470 1471 1471 1471 1471 1471 1470 1470 1469 1468 1468 1467 1467 1466 1465 1465 1464 1464 1463 1461 1459 1458 1457 1456 1454 1452 1450 1447
1456 1457 1458 1459 1460 1461 1462 1463 1463 1464 1464 1465 1465 1465 1465 1466 1466 1466 1466 1466 1466 1465 1465 1464 1464 1463 1462 1462 1461 1460 1459 1458 1458 1457 1456 1454 1454 1452 1451 1449 1447 1444 1442
1454 1455 1456 1456 1457 1457 1458 1459 1459 1460 1460 1460 1460 1460 1461 1461 1462 1462 1462 1461 1461 1460 1460 1459 1459 1458 1457 1456 1456 1454 1453 1453 1452 1451 1451 1449 1448 1447 1446 1444 1442 1439 1436
1451 1452 1453 1453 1454 1454 1455 1455 1456 1456 1456 1456 1456 1456 1456 1457 1457 1457 1457 1457 1456 1456 1455 1454 1453 1453 1452 1451 1450 1449 1448 1447 1446 1445 1445 1443 1442 1441 1440 1439 1437 1435 1431
1449 1449 1450 1451 1451 1451 1452 1452 1452 1452 1453 1453 1453 1453 1453 1453 1453 1453 1453 1452 1452 1451 1450 1449 1448 1448 1447 1446 1445 1444 1443 1442 1441 1440 1439 1438 1437 1435 1434 1433 1431 1430 1427
1447 1447 1447 1448 1448 1448 1448 1448 1449 1449 1449 1449 1449 1449 1449 1449 1449 1449 1449 1448 1448 1447 1446 1445 1444 1443 1442 1441 1440 1439 1439 1438 1436 1435 1434 1433 1431 1430 1429 1427 1425 1424 1422
1445 1445 1445 1445 1446 1445 1445 1445 1445 1446 1446 1445 1445 1445 1445 1445 1445 1445 1445 1444 1443 1443 1442 1441 1440 1439 1437 1436 1435 1435 1434 1433 1432 1431 1429 1428 1427 1425 1424 1422 1419 1418 1416
1442 1443 1443 1443 1443 1443 1443 1443 1443 1443 1443 1442 1442 1442 1442 1442 1442 1441 1441 1440 1440 1439 1438 1437 1436 1435 1434 1432 1432 1431 1430 1429 1428 1426 1425 1424 1422 1421 1419 1417 1414 1412 1410
1440 1440 1440 1440 1440 1440 1440 1440 1440 1440 1441 1440 1440 1440 1439 1438 1438 1438 1437 1437 1436 1436 1434 1433 1432 1431 1430 1429 1428 1427 1426 1425 1424 1422 1421 1419 1418 1416 1414 1413 1410 1408 1405
1438 1438 1438 1438 1438 1438 1438 1438 1438 1438 1438 1438 1437 1437 1436 1435 1435 1434 1434 1433 1433 1432 1431 1430 1429 1428 1427 1425 1425 1423 1422 1421 1420 1418 1417 1415 1414 1412 1410 1408 1406 1404 1401
1437 1436 1436 1436 1436 1436 1436 1435 1435 1435 1435 1435 1434 1433 1432 1431 1431 1431 1430 1430 1429 1428 1427 1426 1425 1424 1423 1422 1421 1420 1419 1418 1416 1415 1413 1411 1410 1408 1406 1404 1402 1400 1397
1435 1435 1434 1434 1434 1434 1434 1434 1433 1432 1432 1431 1431 1430 1429 1428 1428 1427 1427 1426 1425 1425 1424 1423 1422 1421 1420 1418 1417 1416 1415 1414 1412 1411 1409 1408 1406 1404 1402 1400 1398 1396 1394
1434 1433 1433 1432 1432 1432 1432 1432 1431 1430 1429 1429 1428 1427 1427 1426 1425 1424 1423 1423 1422 1421 1420 1419 1418 1417 1416 1415 1414 1412 1411 1410 1408 1407 1405 1404 1402 1400 1398 1396 1395 1393 1391
1432 1432 1431 1431 1431 1430 1430 1430 1429 1429 1428 1427 1426 1425 1424 1423 1422 1422 1421 1420 1419 1418 1417 1416 1414 1413 1412 1411 1410 1408 1407 1405 1404 1402 1401 1400 1398 1397 1395 1393 1391 1389 1387
1431 1431 1430 1430 1429 1429 1428 1428 1427 1427 1426 1426 1425 1424 1423 1422 1420 1419 1418 1417 1416 1415 1413 1412 1411 1410 1408 1407 1406 1404 1403 1401 1400 1399 1397 1396 1394 1393 1391 1389 1387 1385 1383
1430 1429 1429 1428 1428 1427 1427 1426 1426 1425 1424 1423 1422 1421 1420 1419 1418 1416 1415 1414 1413 1411 1410 1409 1407 1406 1404 1403 1402 1400 1398 1397 1396 1394 1393 1392 1390 1389 1387 1385 1383 1382 1380
1428 1427 1427 1426 1426 1425 1425 1424 1423 1422 1421 1420 1419 1418 1417 1416 1415 1413 1412 1411 1409 1408 1406 1405 1403 1402 1400 1399 1397 1396 1394 1393 1391 1390 1389 1387 1386 1385 1383 1381 1380 1378 1376
1426 1426 1425 1424 1424 1423 1422 1421 1420 1420 1419 1417 1416 1415 1414 1412 1411 1410 1408 1406 1405 1404 1402 1401 1399 1397 1396 1394 1393 1391 1390 1389 1387 1386 1385 1383 1382 1381 1379 1377 1376 1374 1373
1424 1423 1422 1422 1421 1420 1419 1418 1417 1416 1415 1414 1413 1411 1410 1408 1407 1405 1404 1402 1401 1399 1398 1396 1395 1393 1391 1390 1388 1387 1385 1384 1383 1382 1380 1379 1378 1376 1375 1373 1372 1370 1369
1422 1421 1420 1419 1418 1417 1416 1415 1414 1413 1411 1410 1409 1407 1406 1404 1402 1401 1399 1398 1396 1395 1393 1392 1390 1389 1387 1385 1384 1382 1381 1380 1378 1378 1376 1375 1373 1372 1371 1369 1368 1367 1365